Weather History for Alice, TX

Change the Weather History Date:

Tuesday, February 25, 2014

  Actual Average Record
Temperature  
Mean Temperature 70 °F -  
Max Temperature 75 °F 70 °F 93 °F (2008)
Min Temperature 66 °F 49 °F 32 °F (2003)
Cooling Degree Days 6    
Growing Degree Days 20 (Base 50)    
Moisture  
Dew Point 68 °F    
Average Humidity 93    
Maximum Humidity 100    
Minimum Humidity 79    
Precipitation  
Precipitation 0.07 in - - ()
Sea Level Pressure  
Sea Level Pressure 29.94 in    
Wind  
Wind Speed 6 mph (ESE)    
Max Wind Speed 16 mph    
Max Gust Speed 20 mph    
Visibility 5 miles    
Events Fog , Rain    
Averages and records for this station are not official NWS values.
T = Trace of Precipitation, MM = Missing Value Source: NWS Daily Summary

Daily Weather History Graph

Daily Weather History Graph

Search for Another Location

Airport:

Trip Planner

Search our weather history database for the weather conditions in past years. The results will help you decide how hot, cold, wet, or windy it might be!

Date:

Astronomy

Feb. 25, 2014 Rise Set
Actual Time 7:00 AM CST 6:30 PM CST
Civil Twilight 6:36 AM CST 6:53 PM CST
Nautical Twilight 6:09 AM CST 7:21 PM CST
Astronomical Twilight 5:42 AM CST 7:48 PM CST
Moon 3:42 AM CST (2/25) 2:50 PM CST (2/25)
Length of Visible Light 12h 16m
Length of Day
11h 29m
Waning Crescent, 18% of the Moon is Illuminated
Feb 25
Waning Crescent
Mar 1
New
Mar 8
First Quarter
Mar 16
Full
Mar 23
Last Quarter

Hourly Weather History & Observations

Time (CST) Temp. Dew Point Humidity Pressure Visibility Wind Dir Wind Speed Gust Speed Precip Events Conditions
12:36 AM 66.9 °F 66.0 °F 97% 29.98 in 5.0 mi SE 4.6 mph - N/A   Overcast
12:53 AM 66.9 °F 66.0 °F 97% 29.97 in 5.0 mi SSE 4.6 mph - N/A   Overcast
1:40 AM 68.0 °F 66.0 °F 93% 29.97 in 4.0 mi ESE 5.8 mph - N/A   Overcast
1:53 AM 68.0 °F 66.9 °F 96% 29.96 in 4.0 mi ESE 4.6 mph - N/A   Overcast
2:06 AM 68.0 °F 66.9 °F 96% 29.96 in 4.0 mi East 4.6 mph - N/A   Overcast
2:24 AM 68.0 °F 66.9 °F 96% 29.97 in 4.0 mi SE 5.8 mph - N/A   Overcast
2:53 AM 68.0 °F 66.9 °F 96% 29.95 in 3.0 mi ESE 5.8 mph - N/A   Overcast
2:59 AM 68.0 °F 66.9 °F 96% 29.96 in 2.5 mi ESE 5.8 mph - N/A   Overcast
3:10 AM 66.9 °F 66.9 °F 100% 29.96 in 1.0 mi ESE 5.8 mph - N/A   Overcast
3:17 AM 66.9 °F 66.9 °F 100% 29.96 in 0.5 mi ESE 4.6 mph - N/A Fog Fog
3:46 AM 66.9 °F 66.9 °F 100% 29.95 in 0.8 mi ESE 5.8 mph - N/A   Mist
3:53 AM 66.9 °F 66.9 °F 100% 29.94 in 0.8 mi East 5.8 mph - N/A   Mist
4:00 AM 66.9 °F 66.9 °F 100% 29.95 in 0.5 mi ESE 4.6 mph - N/A Fog Fog
4:12 AM 66.9 °F 66.9 °F 100% 29.95 in 0.2 mi East 4.6 mph - N/A Fog Fog
4:23 AM 66.9 °F 66.9 °F 100% 29.94 in 0.5 mi East 4.6 mph - N/A Fog Fog
4:34 AM 66.9 °F 66.9 °F 100% 29.95 in 1.0 mi ESE 4.6 mph - N/A   Mist
4:53 AM 66.9 °F 66.9 °F 100% 29.94 in 3.0 mi ESE 5.8 mph - N/A   Overcast
5:04 AM 66.9 °F 66.9 °F 100% 29.94 in 3.0 mi ESE 4.6 mph - N/A   Overcast
5:19 AM 66.9 °F 66.0 °F 97% 29.94 in 4.0 mi East 4.6 mph - N/A   Overcast
5:53 AM 66.9 °F 66.0 °F 97% 29.94 in 4.0 mi East 4.6 mph - N/A   Overcast
6:15 AM 66.9 °F 66.0 °F 97% 29.95 in 2.5 mi East 4.6 mph - N/A   Overcast
6:19 AM 66.9 °F 66.0 °F 97% 29.95 in 1.8 mi East 6.9 mph - N/A   Overcast
6:53 AM 66.9 °F 66.9 °F 100% 29.96 in 0.8 mi Calm Calm - 0.00 in Rain Light Rain
7:03 AM 66.9 °F 66.0 °F 97% 29.97 in 1.5 mi East 3.5 mph - 0.00 in   Overcast
7:14 AM 66.9 °F 66.0 °F 97% 29.97 in 0.5 mi East 4.6 mph - 0.00 in Fog Fog
7:36 AM 66.9 °F 66.0 °F 97% 29.97 in 0.2 mi East 4.6 mph - 0.00 in Fog Fog
7:53 AM 66.9 °F 66.0 °F 97% 29.97 in 0.2 mi East 6.9 mph - 0.02 in Fog , Rain Light Rain
8:02 AM 66.9 °F 66.0 °F 97% 29.97 in 0.8 mi East 6.9 mph - 0.00 in Rain Light Rain
8:15 AM 66.9 °F 66.0 °F 97% 29.97 in 1.0 mi East 8.1 mph - 0.00 in Rain Light Rain
8:53 AM 66.9 °F 66.9 °F 100% 29.99 in 2.0 mi East 5.8 mph - 0.00 in   Overcast
9:36 AM 68.0 °F 68.0 °F 100% 29.99 in 3.0 mi ESE 6.9 mph - N/A   Overcast
9:53 AM 69.1 °F 68.0 °F 96% 29.99 in 3.0 mi ESE 5.8 mph - N/A   Overcast
10:01 AM 69.1 °F 68.0 °F 96% 29.99 in 4.0 mi ESE 10.4 mph - N/A   Overcast
10:23 AM 70.0 °F 69.1 °F 97% 29.99 in 4.0 mi ESE 8.1 mph - N/A   Overcast
10:53 AM 71.1 °F 69.1 °F 93% 29.99 in 7.0 mi SE 8.1 mph - 0.00 in   Overcast
11:53 AM 73.0 °F 70.0 °F 90% 29.97 in 8.0 mi SE 11.5 mph - 0.01 in   Overcast
12:19 PM 73.9 °F 70.0 °F 87% 29.96 in 10.0 mi SE 10.4 mph - N/A   Overcast
12:53 PM 73.9 °F 69.1 °F 85% 29.94 in 10.0 mi ESE 10.4 mph - N/A   Overcast
1:31 PM 73.9 °F 69.1 °F 85% 29.92 in 5.0 mi SE 11.5 mph - 0.04 in Rain Heavy Rain
1:53 PM 75.0 °F 70.0 °F 84% 29.90 in 10.0 mi ESE 9.2 mph - 0.04 in   Overcast
2:53 PM 75.0 °F 69.1 °F 82% 29.88 in 8.0 mi SE 11.5 mph - 0.00 in Rain Light Rain
3:53 PM 75.9 °F 69.1 °F 79% 29.86 in 10.0 mi SE 13.8 mph 19.6 mph 0.00 in   Overcast
4:25 PM 75.9 °F 69.1 °F 79% 29.86 in 10.0 mi SE 16.1 mph - N/A   Overcast
4:33 PM 75.0 °F 69.1 °F 82% 29.86 in 10.0 mi SE 12.7 mph - N/A   Overcast
4:53 PM 75.0 °F 69.1 °F 82% 29.86 in 10.0 mi SE 12.7 mph - N/A   Overcast
5:53 PM 75.0 °F 68.0 °F 79% 29.86 in 10.0 mi SE 9.2 mph - N/A   Overcast
6:11 PM 73.9 °F 68.0 °F 82% 29.86 in 10.0 mi SE 10.4 mph - N/A   Mostly Cloudy
6:53 PM 72.0 °F 68.0 °F 87% 29.87 in 10.0 mi SE 5.8 mph - N/A   Mostly Cloudy
7:13 PM 72.0 °F 68.0 °F 87% 29.88 in 10.0 mi SE 6.9 mph - N/A   Mostly Cloudy
7:22 PM 72.0 °F 68.0 °F 87% 29.88 in 10.0 mi ESE 8.1 mph - N/A   Mostly Cloudy
7:53 PM 72.0 °F 68.0 °F 87% 29.89 in 10.0 mi SE 5.8 mph - N/A   Overcast
8:09 PM 72.0 °F 68.0 °F 87% 29.90 in 10.0 mi SE 4.6 mph - N/A   Overcast
8:53 PM 72.0 °F 69.1 °F 91% 29.90 in 10.0 mi SSE 8.1 mph - N/A   Overcast
9:38 PM 71.1 °F 69.1 °F 93% 29.92 in 10.0 mi SE 4.6 mph - N/A   Overcast
9:53 PM 71.1 °F 69.1 °F 93% 29.91 in 10.0 mi SE 4.6 mph - N/A   Overcast
10:53 PM 71.1 °F 69.1 °F 93% 29.91 in 10.0 mi SSE 4.6 mph - N/A   Overcast
11:17 PM 71.1 °F 69.1 °F 93% 29.92 in 10.0 mi Calm Calm - N/A   Overcast
11:53 PM 71.1 °F 69.1 °F 93% 29.92 in 10.0 mi Calm Calm - N/A   Overcast